Zurück zum Katalog

STARLINK-37664

AktivKommunikationSSO
NORAD 69044·PAYLOAD·🇺🇸 United States

Gestartet May 6, 2026 von Vandenberg Space Force Base

Loading…

Nächste Überflüge (nächste 24 Stunden)

TLE

AktuellSource: CelesTrak SupGP

Epoche: Sep 14, 2026, 23:14 UTC

1 69044C 26101V   26257.96854167  .00083828  00000+0  26027-2 0  2575
2 69044  97.2845 111.5414 0002012  94.6617 204.6982 15.33389741    11

Verfolge STARLINK-37664 in Echtzeit mit AllMySat

Download on the App Store